Date String (YYYY-MM-DD hh:mm:ss) UTC,Instrument flags,Ambient pressure (hPa),Sample flow (lpm),Bypass flow (lpm),Sample temperature (°C),Ambient temperature (°C),ASC tube jacket temperature (°C),LED temperature (°C),Box temperature (°C),Sample RH (%),Span deviation,Mass concentration (μg/m³),Mass concentration (μg/m³),Mass concentration (μg/m³)
DateTimeUTC,F1_M11,P_M11,Q1_M11,Q2_M11,T1_M11,T2_M11,T3_M11,T4_M11,T5_M11,U1_M11,ZSPAN_M11,X0_M11,X2_M11,X1_M11
2021-09-30 06:00:00,,0833.1,5.00,0.00,28.7,28.0,00.0,37.9,30.5,18.8,0000.0,0006.31,0002.27,0001.77
2021-09-30 06:01:00,,0833.1,5.00,0.00,28.7,28.0,00.0,37.9,30.4,18.7,0000.0,0006.10,0002.21,0001.79
2021-09-30 06:02:00,,0833.1,5.01,0.00,28.7,28.0,00.0,37.8,30.4,18.9,0000.0,0006.09,0002.23,0001.81
2021-09-30 06:03:00,,0833.1,5.00,0.00,28.7,27.9,00.0,37.8,30.4,19.0,0000.0,0006.12,0002.25,0001.83
2021-09-30 06:04:00,,0833.1,4.98,0.00,28.7,27.9,00.0,37.8,30.4,18.9,0000.0,0006.15,0002.31,0001.85
2021-09-30 06:05:00,,0833.2,5.01,0.00,28.6,27.9,00.0,37.8,30.4,18.9,0000.0,0006.39,0002.37,0001.89
2021-09-30 06:06:00,,0833.1,5.00,0.00,28.6,27.9,00.0,37.8,30.4,18.9,0000.0,0006.61,0002.39,0001.93
2021-09-30 06:07:00,,0833.1,5.00,0.00,28.6,27.9,00.0,37.8,30.4,18.9,0000.0,0006.55,0002.40,0001.97
2021-09-30 06:08:00,,0833.1,5.00,0.00,28.6,27.9,00.0,37.8,30.4,19.0,0000.0,0006.58,0002.44,0002.01
2021-09-30 06:09:00,,0833.1,5.00,0.00,28.6,27.8,00.0,37.8,30.4,19.3,0000.0,0006.55,0002.48,0002.04
2021-09-30 06:10:00,,0833.0,5.01,0.00,28.6,27.8,00.0,37.8,30.3,19.4,0000.0,0005.94,0002.53,0002.07
2021-09-30 06:11:00,,0833.1,5.01,0.00,28.6,27.8,00.0,37.7,30.3,19.3,0000.0,0003.86,0002.53,0002.08
2021-09-30 06:12:00,,0833.0,4.99,0.00,28.6,27.8,00.0,37.7,30.3,19.2,0000.0,0003.91,0002.57,0002.10
2021-09-30 06:13:00,,0833.0,5.01,0.00,28.5,27.8,00.0,37.7,30.3,19.3,0000.0,0003.97,0002.59,0002.12
2021-09-30 06:14:00,,0833.1,4.99,0.00,28.5,27.7,00.0,37.7,30.2,19.4,0000.0,0003.96,0002.60,0002.15
2021-09-30 06:15:00,,0833.0,4.99,0.00,28.5,27.6,00.0,37.7,30.2,19.4,0000.0,0003.96,0002.61,0002.18
2021-09-30 06:16:00,,0833.0,5.01,0.00,28.4,27.6,00.0,37.7,30.2,19.3,0000.0,0003.91,0002.60,0002.19
2021-09-30 06:17:00,,0833.1,5.00,0.00,28.4,27.5,00.0,37.6,30.1,19.2,0000.0,0003.63,0002.61,0002.21
2021-09-30 06:18:00,,0833.0,5.00,0.00,28.4,27.5,00.0,37.6,30.1,19.3,0000.0,0003.76,0002.64,0002.22
2021-09-30 06:19:00,,0833.1,4.99,0.00,28.4,27.4,00.0,37.6,30.0,19.2,0000.0,0003.91,0002.65,0002.22
2021-09-30 06:20:00,,0833.1,5.00,0.00,28.3,27.4,00.0,37.6,30.0,19.3,0000.0,0003.91,0002.63,0002.24
2021-09-30 06:21:00,,0833.0,5.00,0.00,28.3,27.4,00.0,37.6,30.0,19.3,0000.0,0003.82,0002.60,0002.25
2021-09-30 06:22:00,,0833.0,5.02,0.00,28.3,27.3,00.0,37.5,30.0,19.5,0000.0,0004.01,0002.62,0002.25
2021-09-30 06:23:00,,0833.0,5.01,0.00,28.3,27.4,00.0,37.5,30.0,19.5,0000.0,0004.68,0002.64,0002.25
2021-09-30 06:24:00,,0833.1,5.00,0.00,28.3,27.3,00.0,37.5,30.0,19.0,0000.0,0005.04,0002.63,0002.23
2021-09-30 06:25:00,,0833.0,5.00,0.00,28.2,27.3,00.0,37.5,29.9,19.0,0000.0,0004.97,0002.59,0002.21
2021-09-30 06:26:00,,0833.1,5.00,0.00,28.2,27.3,00.0,37.5,29.9,19.2,0000.0,0004.98,0002.57,0002.18
2021-09-30 06:27:00,,0833.0,5.01,0.00,28.2,27.3,00.0,37.4,29.9,19.1,0000.0,0004.93,0002.55,0002.15
2021-09-30 06:28:00,,0833.0,5.01,0.00,28.1,27.2,00.0,37.4,29.9,18.9,0000.0,0004.90,0002.52,0002.11
2021-09-30 06:29:00,,0833.0,4.99,0.00,28.1,27.2,00.0,37.4,29.9,19.0,0000.0,0004.82,0002.48,0002.07
2021-09-30 06:30:00,,0833.0,4.99,0.00,28.1,27.2,00.0,37.4,29.8,19.0,0000.0,0004.64,0002.44,0002.04
2021-09-30 06:31:00,,0833.0,5.00,0.00,28.1,27.2,00.0,37.4,29.8,18.9,0000.0,0004.58,0002.37,0001.99
2021-09-30 06:32:00,,0833.0,4.99,0.00,28.1,27.2,00.0,37.3,29.8,18.9,0000.0,0004.59,0002.33,0001.94
2021-09-30 06:33:00,,0833.1,5.01,0.00,28.1,27.1,00.0,37.3,29.8,18.9,0000.0,0004.57,0002.28,0001.91
2021-09-30 06:34:00,,0833.0,4.99,0.00,28.0,27.1,00.0,37.3,29.8,19.2,0000.0,0005.36,0002.24,0001.87
2021-09-30 06:35:00,,0833.0,4.99,0.00,28.0,27.2,00.0,37.3,29.8,19.1,0000.0,0005.35,0002.24,0001.87
2021-09-30 06:36:00,,0833.1,5.00,0.00,28.0,27.2,00.0,37.3,29.8,19.0,0000.0,0005.37,0002.27,0001.87
2021-09-30 06:37:00,,0833.1,5.00,0.00,28.0,27.1,00.0,37.2,29.8,19.0,0000.0,0005.35,0002.27,0001.86
2021-09-30 06:38:00,,0833.1,4.99,0.00,28.0,27.2,00.0,37.2,29.7,19.1,0000.0,0005.20,0002.20,0001.84
2021-09-30 06:39:00,,0833.1,4.99,0.00,28.0,27.2,00.0,37.2,29.8,19.3,0000.0,0005.18,0002.19,0001.83
2021-09-30 06:40:00,,0833.1,5.00,0.00,28.0,27.3,00.0,37.2,29.8,19.3,0000.0,0005.15,0002.18,0001.82
2021-09-30 06:41:00,,0833.0,4.99,0.00,28.0,27.3,00.0,37.2,29.8,19.3,0000.0,0005.27,0002.24,0001.83
2021-09-30 06:42:00,,0833.0,5.00,0.00,28.0,27.4,00.0,37.2,29.8,19.2,0000.0,0005.49,0002.31,0001.86
2021-09-30 06:43:00,,0833.1,5.00,0.00,28.1,27.4,00.0,37.2,29.8,19.2,0000.0,0005.51,0002.35,0001.89
2021-09-30 06:44:00,,0833.0,5.00,0.00,28.1,27.4,00.0,37.2,29.9,19.3,0000.0,0005.36,0002.40,0001.92
2021-09-30 06:45:00,,0833.1,4.99,0.00,28.1,27.4,00.0,37.2,29.9,19.4,0000.0,0003.95,0002.44,0001.95
2021-09-30 06:46:00,,0833.0,5.01,0.00,28.1,27.4,00.0,37.2,29.9,19.4,0000.0,0003.74,0002.47,0001.98
2021-09-30 06:47:00,,0832.9,5.00,0.00,28.1,27.5,00.0,37.2,29.9,19.3,0000.0,0003.87,0002.52,0002.00
2021-09-30 06:48:00,,0832.9,5.00,0.00,28.1,27.5,00.0,37.2,30.0,19.3,0000.0,0003.92,0002.55,0002.03
2021-09-30 06:49:00,,0832.8,5.02,0.00,28.2,27.5,00.0,37.2,30.0,19.4,0000.0,0004.05,0002.61,0002.05
2021-09-30 06:50:00,,0832.9,5.01,0.00,28.2,27.5,00.0,37.2,30.0,19.5,0000.0,0004.08,0002.63,0002.08
2021-09-30 06:51:00,,0832.8,5.00,0.00,28.2,27.5,00.0,37.3,29.9,19.7,0000.0,0004.30,0002.67,0002.13
2021-09-30 06:52:00,,0832.8,4.99,0.00,28.2,27.5,00.0,37.3,29.9,19.8,0000.0,0004.23,0002.68,0002.18
2021-09-30 06:53:00,,0832.9,5.00,0.00,28.2,27.5,00.0,37.3,29.9,19.9,0000.0,0004.05,0002.69,0002.22
2021-09-30 06:54:00,,0832.9,5.00,0.00,28.2,27.5,00.0,37.3,29.9,19.9,0000.0,0004.06,0002.73,0002.27
2021-09-30 06:55:00,,0832.9,5.00,0.00,28.1,27.5,00.0,37.3,29.9,19.8,0000.0,0004.35,0002.81,0002.32
2021-09-30 06:56:00,,0832.8,5.00,0.00,28.1,27.4,00.0,37.2,29.9,19.9,0000.0,0004.43,0002.85,0002.37
2021-09-30 06:57:00,,0832.8,5.00,0.00,28.1,27.5,00.0,37.2,29.9,20.0,0000.0,0004.43,0002.85,0002.39
2021-09-30 06:58:00,,0832.8,5.01,0.00,28.1,27.5,00.0,37.3,29.9,19.9,0000.0,0004.97,0002.88,0002.43
2021-09-30 06:59:00,,0832.8,4.99,0.00,28.1,27.5,00.0,37.3,29.9,19.9,0000.0,0005.85,0002.92,0002.46
